QPF
0.00 0.00 0.00 0.00 0.00 0.00 0.00 0.01 0.01 0.01 0.02 0.06 0.04 0.00 0.01 0.01 0.02 0.02 0.01 0.03 0.06 0.09 0.11 0.09 0.09 0.13 0.16 0.15 0.15 0.16 0.14 0.10 0.08 0.06 0.05 0.08 0.16 0.24 0.29 0.27 0.23 0.20 0.16 0.14 0.14 0.13 0.10 0.09 0.07
0.00 0.00 0.00 0.00 0.00 0.00 0.00 0.01 0.01 0.01 0.01 0.03 0.02 0.01 0.02 0.01 0.01 0.01 0.02 0.04 0.09 0.13 0.15 0.10 0.10 0.16 0.09 0.08 0.09 0.10 0.10 0.10 0.10 0.07 0.07 0.08 0.11 0.14 0.14 0.15 0.16 0.15 0.14 0.13 0.12 0.11 0.09 0.08 0.06
0.00 0.00 0.00 0.00 0.00 0.00 0.00 0.00 0.01 0.01 0.01 0.02 0.02 0.01 0.01 0.01 0.01 0.01 0.02 0.05 0.13 0.22 0.23 0.20 0.17 0.17 0.12 0.09 0.08 0.10 0.13 0.14 0.13 0.11 0.08 0.07 0.07 0.08 0.09 0.10 0.10 0.10 0.10 0.10 0.09 0.07 0.07 0.06 0.04
0.00 0.00 0.00 0.00 0.00 0.00 0.00 0.00 0.01 0.01 0.01 0.02 0.01 0.01 0.02 0.03 0.02 0.02 0.02 0.07 0.15 0.24 0.29 0.30 0.22 0.13 0.10 0.09 0.08 0.11 0.13 0.14 0.14 0.13 0.11 0.09 0.08 0.08 0.08 0.07 0.07 0.06 0.05 0.05 0.05 0.05 0.05 0.04 0.03
0.00 0.00 0.00 0.00 0.00 0.00 0.00 0.00 0.00 0.02 0.03 0.03 0.02 0.01 0.03 0.04 0.03 0.02 0.04 0.07 0.12 0.16 0.26 0.27 0.17 0.10 0.08 0.07 0.07 0.08 0.11 0.12 0.12 0.11 0.11 0.10 0.08 0.07 0.06 0.05 0.06 0.05 0.04 0.04 0.05 0.04 0.03 0.03 0.03
0.00 0.00 0.00 0.00 0.01 0.00 0.00 0.00 0.00 0.03 0.03 0.02 0.02 0.02 0.04 0.04 0.04 0.03 0.05 0.09 0.10 0.12 0.18 0.22 0.15 0.08 0.07 0.06 0.06 0.05 0.06 0.07 0.08 0.09 0.09 0.08 0.07 0.06 0.06 0.05 0.05 0.04 0.04 0.04 0.03 0.03 0.02 0.03 0.03
0.00 0.00 0.00 0.00 0.01 0.01 0.00 0.00 0.00 0.02 0.02 0.02 0.04 0.03 0.04 0.06 0.04 0.04 0.06 0.09 0.10 0.10 0.12 0.13 0.11 0.07 0.06 0.05 0.04 0.04 0.04 0.04 0.04 0.05 0.05 0.05 0.05 0.06 0.07 0.05 0.04 0.04 0.04 0.03 0.03 0.03 0.03 0.02 0.04
0.00 0.00 0.00 0.00 0.00 0.00 0.00 0.00 0.00 0.02 0.02 0.02 0.04 0.04 0.06 0.07 0.06 0.08 0.09 0.09 0.08 0.07 0.07 0.06 0.06 0.05 0.04 0.04 0.03 0.04 0.05 0.04 0.03 0.03 0.03 0.03 0.05 0.06 0.06 0.06 0.06 0.06 0.06 0.05 0.04 0.03 0.04 0.03 0.03
0.00 0.00 0.00 0.00 0.00 0.00 0.00 0.00 0.00 0.02 0.01 0.01 0.02 0.03 0.05 0.06 0.08 0.09 0.08 0.08 0.06 0.05 0.06 0.04 0.03 0.03 0.02 0.03 0.03 0.04 0.04 0.03 0.04 0.03 0.03 0.03 0.04 0.04 0.04 0.03 0.06 0.07 0.06 0.05 0.05 0.05 0.05 0.04 0.03
0.00 0.00 0.00 0.00 0.00 0.00 0.00 0.00 0.00 0.00 0.00 0.01 0.02 0.02 0.03 0.04 0.06 0.05 0.05 0.05 0.05 0.05 0.04 0.03 0.02 0.02 0.01 0.01 0.03 0.03 0.03 0.03 0.03 0.02 0.01 0.02 0.03 0.03 0.01 0.01 0.03 0.05 0.06 0.05 0.05 0.05 0.04 0.04 0.03
0.00 0.00 0.00 0.00 0.00 0.00 0.00 0.00 0.00 0.00 0.00 0.00 0.01 0.02 0.02 0.04 0.05 0.04 0.03 0.04 0.04 0.04 0.03 0.01 0.01 0.01 0.01 0.01 0.02 0.03 0.03 0.03 0.01 0.01 0.01 0.02 0.01 0.01 0.01 0.02 0.03 0.04 0.04 0.04 0.03 0.03 0.03 0.04 0.05
0.00 0.00 0.00 0.00 0.00 0.00 0.00 0.00 0.00 0.00 0.00 0.00 0.00 0.01 0.02 0.03 0.04 0.03 0.02 0.02 0.03 0.03 0.02 0.01 0.01 0.01 0.01 0.01 0.02 0.02 0.02 0.02 0.01 0.01 0.01 0.01 0.01 0.02 0.04 0.06 0.05 0.06 0.04 0.04 0.04 0.05 0.04 0.04 0.06
0.00 0.00 0.00 0.00 0.00 0.00 0.00 0.00 0.00 0.00 0.00 0.00 0.00 0.00 0.00 0.01 0.01 0.02 0.01 0.01 0.02 0.02 0.02 0.02 0.02 0.01 0.01 0.02 0.02 0.02 0.02 0.02 0.02 0.02 0.02 0.01 0.02 0.03 0.04 0.06 0.08 0.07 0.04 0.06 0.05 0.04 0.05 0.06 0.06
0.00 0.00 0.00 0.00 0.00 0.00 0.00 0.00 0.00 0.00 0.00 0.00 0.00 0.00 0.00 0.00 0.01 0.01 0.02 0.02 0.02 0.02 0.01 0.01 0.02 0.01 0.02 0.03 0.02 0.02 0.02 0.03 0.03 0.03 0.03 0.03 0.04 0.05 0.04 0.04 0.06 0.07 0.05 0.06 0.05 0.06 0.06 0.05 0.06
0.00 0.00 0.00 0.00 0.00 0.00 0.00 0.00 0.00 0.00 0.00 0.00 0.00 0.00 0.00 0.00 0.01 0.01 0.01 0.01 0.01 0.02 0.02 0.02 0.02 0.03 0.03 0.04 0.04 0.03 0.03 0.03 0.04 0.04 0.03 0.03 0.04 0.05 0.05 0.04 0.05 0.07 0.06 0.06 0.06 0.06 0.06 0.05 0.05
0.00 0.00 0.00 0.00 0.00 0.00 0.00 0.00 0.00 0.00 0.00 0.00 0.00 0.00 0.01 0.01 0.01 0.01 0.01 0.01 0.01 0.01 0.01 0.02 0.02 0.03 0.03 0.04 0.04 0.05 0.05 0.05 0.05 0.05 0.05 0.05 0.05 0.06 0.06 0.05 0.06 0.07 0.07 0.07 0.08 0.07 0.06 0.05 0.05
0.00 0.00 0.00 0.00 0.00 0.00 0.00 0.00 0.00 0.00 0.00 0.00 0.00 0.01 0.01 0.01 0.00 0.00 0.00 0.00 0.00 0.01 0.01 0.02 0.02 0.03 0.04 0.03 0.04 0.05 0.05 0.07 0.08 0.05 0.05 0.05 0.05 0.05 0.05 0.05 0.04 0.05 0.07 0.07 0.07 0.06 0.07 0.07 0.08
0.00 0.00 0.00 0.00 0.00 0.00 0.00 0.00 0.00 0.00 0.00 0.00 0.00 0.02 0.02 0.00 0.00 0.00 0.00 0.00 0.00 0.01 0.01 0.01 0.01 0.02 0.03 0.04 0.04 0.04 0.04 0.05 0.05 0.05 0.05 0.05 0.04 0.05 0.06 0.05 0.03 0.04 0.05 0.06 0.07 0.08 0.08 0.07 0.08
0.00 0.00 0.00 0.00 0.00 0.00 0.00 0.00 0.00 0.00 0.00 0.00 0.00 0.01 0.01 0.00 0.00 0.00 0.01 0.01 0.00 0.00 0.01 0.01 0.01 0.03 0.04 0.05 0.05 0.05 0.04 0.03 0.04 0.03 0.02 0.03 0.04 0.06 0.06 0.04 0.04 0.04 0.05 0.06 0.08 0.08 0.08 0.08 0.09
0.00 0.00 0.00 0.00 0.00 0.00 0.00 0.00 0.00 0.00 0.00 0.00 0.00 0.00 0.00 0.00 0.00 0.00 0.01 0.01 0.01 0.00 0.00 0.00 0.01 0.02 0.03 0.03 0.04 0.04 0.05 0.03 0.03 0.03 0.03 0.05 0.05 0.04 0.03 0.04 0.04 0.04 0.04 0.05 0.06 0.07 0.07 0.07 0.08
0.00 0.00 0.00 0.00 0.00 0.00 0.00 0.00 0.00 0.00 0.00 0.00 0.00 0.00 0.00 0.00 0.00 0.00 0.00 0.00 0.00 0.00 0.00 0.00 0.01 0.01 0.01 0.02 0.02 0.02 0.04 0.04 0.05 0.06 0.05 0.05 0.05 0.05 0.04 0.04 0.05 0.05 0.03 0.04 0.05 0.06 0.06 0.07 0.07
0.00 0.00 0.00 0.00 0.00 0.00 0.00 0.00 0.00 0.00 0.00 0.00 0.00 0.00 0.00 0.00 0.00 0.00 0.00 0.00 0.00 0.00 0.00 0.00 0.01 0.00 0.01 0.01 0.01 0.01 0.02 0.03 0.04 0.06 0.07 0.06 0.06 0.05 0.05 0.04 0.07 0.09 0.05 0.05 0.04 0.05 0.06 0.07 0.09
0.00 0.00 0.00 0.00 0.00 0.00 0.00 0.00 0.00 0.00 0.00 0.00 0.00 0.00 0.00 0.00 0.00 0.00 0.00 0.00 0.00 0.00 0.00 0.00 0.01 0.01 0.00 0.01 0.01 0.01 0.01 0.02 0.03 0.05 0.06 0.08 0.07 0.06 0.06 0.06 0.08 0.08 0.07 0.06 0.05 0.04 0.05 0.06 0.09
0.00 0.00 0.00 0.00 0.00 0.00 0.00 0.00 0.00 0.00 0.00 0.00 0.00 0.00 0.00 0.00 0.00 0.00 0.00 0.00 0.00 0.00 0.00 0.00 0.01 0.01 0.01 0.01 0.00 0.01 0.01 0.02 0.02 0.03 0.03 0.03 0.04 0.05 0.05 0.07 0.05 0.04 0.04 0.05 0.04 0.04 0.05 0.06 0.06
0.00 0.00 0.00 0.00 0.00 0.00 0.00 0.00 0.00 0.00 0.00 0.00 0.00 0.00 0.00 0.00 0.00 0.00 0.00 0.00 0.00 0.00 0.00 0.00 0.00 0.00 0.00 0.00 0.00 0.00 0.01 0.01 0.01 0.01 0.01 0.01 0.02 0.03 0.03 0.04 0.05 0.05 0.05 0.03 0.03 0.03 0.04 0.05 0.04
0.00 0.00 0.00 0.00 0.01 0.01 0.00 0.00 0.00 0.00 0.00 0.00 0.00 0.00 0.00 0.00 0.00 0.00 0.00 0.00 0.00 0.00 0.00 0.00 0.00 0.00 0.00 0.00 0.00 0.00 0.01 0.00 0.01 0.01 0.01 0.01 0.02 0.02 0.02 0.02 0.02 0.02 0.04 0.03 0.02 0.02 0.03 0.03 0.04
0.00 0.00 0.00 0.00 0.00 0.01 0.01 0.00 0.00 0.00 0.00 0.00 0.00 0.00 0.00 0.00 0.00 0.00 0.00 0.00 0.00 0.00 0.00 0.00 0.00 0.00 0.00 0.00 0.00 0.01 0.00 0.00 0.00 0.00 0.00 0.01 0.02 0.02 0.02 0.02 0.01 0.01 0.01 0.02 0.02 0.02 0.02 0.02 0.03
0.00 0.00 0.00 0.00 0.00 0.00 0.00 0.00 0.00 0.00 0.00 0.00 0.00 0.00 0.00 0.00 0.00 0.00 0.01 0.00 0.00 0.00 0.00 0.00 0.00 0.00 0.00 0.00 0.00 0.00 0.00 0.00 0.00 0.00 0.00 0.01 0.02 0.01 0.01 0.02 0.01 0.01 0.01 0.02 0.02 0.02 0.02 0.02 0.03
0.00 0.00 0.00 0.00 0.00 0.00 0.00 0.00 0.00 0.00 0.00 0.00 0.00 0.00 0.00 0.00 0.00 0.00 0.00 0.00 0.00 0.00 0.00 0.00 0.00 0.00 0.00 0.00 0.00 0.00 0.00 0.00 0.01 0.01 0.01 0.01 0.02 0.02 0.01 0.01 0.01 0.02 0.02 0.01 0.01 0.01 0.02 0.02 0.02
0.00 0.00 0.00 0.00 0.00 0.00 0.00 0.00 0.00 0.00 0.00 0.00 0.00 0.00 0.01 0.01 0.01 0.01 0.00 0.00 0.00 0.00 0.00 0.00 0.00 0.00 0.00 0.00 0.00 0.00 0.00 0.00 0.01 0.01 0.01 0.01 0.02 0.02 0.01 0.01 0.02 0.02 0.01 0.01 0.01 0.01 0.01 0.02 0.03
MSLP
1007.53 1008.19 1009.15 1010.31 1011.54 1012.70 1013.65 1014.32 1014.70 1014.83 1014.79 1014.69 1014.60 1014.57 1014.60 1014.66 1014.72 1014.73 1014.69 1014.61 1014.53 1014.50 1014.58 1014.76 1015.03 1015.34 1015.60 1015.75 1015.74 1015.58 1015.30 1014.96 1014.65 1014.42 1014.32 1014.33 1014.43 1014.54 1014.62 1014.62 1014.52 1014.35 1014.14 1013.96 1013.85 1013.83 1013.88 1013.98 1014.08
1007.76 1008.60 1009.73 1011.02 1012.32 1013.48 1014.38 1014.94 1015.18 1015.15 1014.96 1014.73 1014.56 1014.48 1014.50 1014.59 1014.71 1014.79 1014.81 1014.79 1014.76 1014.77 1014.86 1015.04 1015.32 1015.62 1015.89 1016.06 1016.09 1015.97 1015.74 1015.45 1015.17 1014.96 1014.85 1014.83 1014.87 1014.92 1014.93 1014.86 1014.73 1014.55 1014.38 1014.26 1014.23 1014.30 1014.43 1014.57 1014.68
1008.22 1009.24 1010.49 1011.85 1013.16 1014.26 1015.05 1015.48 1015.58 1015.41 1015.11 1014.81 1014.59 1014.50 1014.54 1014.68 1014.83 1014.96 1015.02 1015.02 1015.00 1015.01 1015.08 1015.25 1015.50 1015.80 1016.08 1016.28 1016.36 1016.32 1016.16 1015.95 1015.73 1015.56 1015.45 1015.40 1015.38 1015.34 1015.26 1015.12 1014.93 1014.73 1014.58 1014.51 1014.54 1014.67 1014.84 1015.01 1015.11
1008.87 1010.01 1011.34 1012.71 1013.97 1014.97 1015.63 1015.92 1015.89 1015.63 1015.27 1014.94 1014.72 1014.66 1014.74 1014.90 1015.08 1015.22 1015.28 1015.27 1015.22 1015.18 1015.22 1015.35 1015.58 1015.87 1016.17 1016.41 1016.55 1016.59 1016.53 1016.40 1016.26 1016.14 1016.05 1015.98 1015.90 1015.80 1015.64 1015.42 1015.18 1014.97 1014.82 1014.77 1014.84 1014.99 1015.18 1015.34 1015.40
1009.60 1010.84 1012.19 1013.51 1014.66 1015.53 1016.06 1016.23 1016.11 1015.80 1015.43 1015.13 1014.96 1014.94 1015.06 1015.24 1015.42 1015.53 1015.55 1015.48 1015.38 1015.29 1015.28 1015.37 1015.57 1015.86 1016.16 1016.44 1016.65 1016.76 1016.79 1016.75 1016.68 1016.61 1016.55 1016.48 1016.38 1016.23 1016.03 1015.78 1015.51 1015.29 1015.14 1015.10 1015.17 1015.31 1015.47 1015.59 1015.59
1010.34 1011.60 1012.91 1014.13 1015.15 1015.88 1016.28 1016.36 1016.19 1015.89 1015.58 1015.34 1015.25 1015.30 1015.45 1015.65 1015.80 1015.86 1015.81 1015.67 1015.50 1015.35 1015.28 1015.34 1015.53 1015.80 1016.12 1016.42 1016.67 1016.83 1016.91 1016.94 1016.93 1016.90 1016.87 1016.82 1016.73 1016.58 1016.38 1016.13 1015.87 1015.65 1015.51 1015.46 1015.51 1015.61 1015.72 1015.76 1015.70
1010.99 1012.21 1013.43 1014.52 1015.40 1015.99 1016.28 1016.30 1016.14 1015.90 1015.68 1015.56 1015.57 1015.69 1015.89 1016.07 1016.19 1016.18 1016.06 1015.84 1015.60 1015.40 1015.30 1015.34 1015.51 1015.78 1016.09 1016.39 1016.64 1016.81 1016.91 1016.95 1016.97 1016.97 1016.96 1016.94 1016.89 1016.78 1016.62 1016.41 1016.19 1015.99 1015.85 1015.79 1015.80 1015.85 1015.88 1015.85 1015.72
1011.51 1012.65 1013.74 1014.69 1015.42 1015.89 1016.10 1016.11 1016.00 1015.85 1015.75 1015.76 1015.88 1016.08 1016.31 1016.49 1016.56 1016.49 1016.30 1016.02 1015.74 1015.51 1015.40 1015.42 1015.59 1015.84 1016.13 1016.40 1016.62 1016.75 1016.82 1016.83 1016.83 1016.84 1016.85 1016.86 1016.85 1016.80 1016.70 1016.55 1016.37 1016.21 1016.09 1016.02 1015.99 1015.97 1015.94 1015.84 1015.65
1011.90 1012.94 1013.90 1014.70 1015.30 1015.67 1015.84 1015.87 1015.83 1015.79 1015.83 1015.96 1016.18 1016.45 1016.70 1016.86 1016.89 1016.78 1016.54 1016.23 1015.93 1015.70 1015.60 1015.63 1015.79 1016.03 1016.28 1016.49 1016.63 1016.69 1016.69 1016.64 1016.60 1016.58 1016.59 1016.62 1016.65 1016.66 1016.62 1016.53 1016.41 1016.28 1016.16 1016.08 1016.02 1015.96 1015.88 1015.74 1015.54
1012.21 1013.15 1013.98 1014.66 1015.15 1015.46 1015.61 1015.68 1015.72 1015.79 1015.94 1016.18 1016.48 1016.79 1017.05 1017.19 1017.19 1017.05 1016.79 1016.48 1016.19 1015.98 1015.91 1015.95 1016.11 1016.32 1016.51 1016.65 1016.71 1016.67 1016.58 1016.45 1016.35 1016.29 1016.29 1016.33 1016.39 1016.43 1016.44 1016.39 1016.31 1016.20 1016.09 1015.99 1015.92 1015.84 1015.75 1015.62 1015.43
1012.49 1013.35 1014.08 1014.67 1015.09 1015.37 1015.53 1015.64 1015.74 1015.90 1016.14 1016.44 1016.78 1017.10 1017.35 1017.48 1017.45 1017.29 1017.03 1016.74 1016.49 1016.32 1016.27 1016.34 1016.49 1016.66 1016.80 1016.87 1016.83 1016.71 1016.53 1016.33 1016.17 1016.08 1016.06 1016.09 1016.16 1016.22 1016.25 1016.22 1016.14 1016.04 1015.93 1015.83 1015.75 1015.69 1015.62 1015.54 1015.42
1012.79 1013.60 1014.28 1014.82 1015.21 1015.47 1015.65 1015.80 1015.96 1016.17 1016.44 1016.76 1017.10 1017.40 1017.62 1017.71 1017.66 1017.50 1017.26 1017.00 1016.79 1016.66 1016.64 1016.72 1016.86 1017.00 1017.09 1017.09 1016.98 1016.80 1016.56 1016.32 1016.13 1016.02 1015.98 1016.01 1016.07 1016.12 1016.14 1016.10 1016.01 1015.90 1015.78 1015.68 1015.62 1015.60 1015.60 1015.60 1015.58
1013.14 1013.94 1014.60 1015.12 1015.51 1015.79 1015.99 1016.17 1016.35 1016.57 1016.83 1017.13 1017.42 1017.67 1017.84 1017.89 1017.83 1017.67 1017.45 1017.23 1017.06 1016.96 1016.96 1017.03 1017.15 1017.25 1017.30 1017.25 1017.12 1016.91 1016.66 1016.43 1016.24 1016.13 1016.10 1016.12 1016.17 1016.20 1016.19 1016.12 1016.00 1015.86 1015.73 1015.64 1015.62 1015.66 1015.75 1015.86 1015.96
1013.53 1014.35 1015.03 1015.56 1015.97 1016.27 1016.49 1016.68 1016.86 1017.06 1017.28 1017.51 1017.73 1017.91 1018.01 1018.03 1017.95 1017.80 1017.61 1017.42 1017.27 1017.19 1017.19 1017.24 1017.32 1017.38 1017.40 1017.34 1017.21 1017.02 1016.81 1016.62 1016.49 1016.41 1016.40 1016.43 1016.46 1016.46 1016.41 1016.30 1016.14 1015.98 1015.84 1015.77 1015.79 1015.90 1016.08 1016.31 1016.54
1013.95 1014.79 1015.49 1016.05 1016.49 1016.82 1017.06 1017.25 1017.41 1017.57 1017.72 1017.87 1018.00 1018.10 1018.15 1018.13 1018.05 1017.91 1017.74 1017.58 1017.45 1017.37 1017.34 1017.35 1017.39 1017.41 1017.40 1017.35 1017.25 1017.12 1016.98 1016.87 1016.81 1016.79 1016.82 1016.86 1016.88 1016.85 1016.76 1016.61 1016.42 1016.23 1016.10 1016.05 1016.11 1016.28 1016.56 1016.89 1017.22
1014.34 1015.19 1015.91 1016.50 1016.98 1017.33 1017.60 1017.79 1017.92 1018.01 1018.09 1018.15 1018.21 1018.24 1018.24 1018.21 1018.13 1018.02 1017.89 1017.75 1017.62 1017.53 1017.46 1017.42 1017.41 1017.39 1017.36 1017.32 1017.27 1017.21 1017.16 1017.14 1017.16 1017.21 1017.27 1017.32 1017.33 1017.28 1017.16 1016.98 1016.77 1016.58 1016.45 1016.41 1016.51 1016.73 1017.07 1017.46 1017.87
1014.68 1015.52 1016.25 1016.86 1017.36 1017.75 1018.03 1018.21 1018.31 1018.36 1018.36 1018.35 1018.34 1018.33 1018.31 1018.28 1018.23 1018.16 1018.07 1017.96 1017.84 1017.72 1017.61 1017.52 1017.45 1017.39 1017.35 1017.32 1017.31 1017.32 1017.35 1017.41 1017.50 1017.60 1017.68 1017.74 1017.74 1017.67 1017.53 1017.34 1017.12 1016.93 1016.81 1016.80 1016.91 1017.16 1017.51 1017.93 1018.37
1014.94 1015.74 1016.46 1017.09 1017.62 1018.03 1018.33 1018.51 1018.58 1018.58 1018.53 1018.46 1018.40 1018.36 1018.34 1018.34 1018.34 1018.33 1018.29 1018.21 1018.11 1017.98 1017.84 1017.70 1017.58 1017.49 1017.43 1017.42 1017.44 1017.49 1017.58 1017.69 1017.82 1017.93 1018.02 1018.07 1018.05 1017.97 1017.82 1017.63 1017.43 1017.25 1017.14 1017.14 1017.25 1017.48 1017.82 1018.22 1018.64
1015.11 1015.87 1016.58 1017.22 1017.77 1018.21 1018.52 1018.70 1018.75 1018.71 1018.61 1018.50 1018.40 1018.35 1018.35 1018.39 1018.45 1018.50 1018.53 1018.51 1018.43 1018.30 1018.15 1017.98 1017.83 1017.72 1017.65 1017.64 1017.68 1017.76 1017.87 1018.00 1018.12 1018.22 1018.29 1018.30 1018.26 1018.16 1018.02 1017.84 1017.67 1017.52 1017.43 1017.42 1017.51 1017.70 1017.98 1018.31 1018.67
1015.24 1015.95 1016.64 1017.29 1017.87 1018.33 1018.66 1018.83 1018.87 1018.78 1018.63 1018.47 1018.35 1018.29 1018.30 1018.39 1018.51 1018.65 1018.75 1018.79 1018.76 1018.66 1018.51 1018.34 1018.18 1018.06 1017.99 1017.98 1018.03 1018.12 1018.22 1018.34 1018.43 1018.49 1018.50 1018.48 1018.41 1018.30 1018.16 1018.01 1017.87 1017.76 1017.69 1017.67 1017.73 1017.85 1018.04 1018.27 1018.53
1015.33 1016.01 1016.70 1017.37 1017.98 1018.47 1018.81 1018.97 1018.97 1018.84 1018.63 1018.42 1018.25 1018.17 1018.20 1018.32 1018.50 1018.70 1018.88 1018.99 1019.02 1018.96 1018.85 1018.71 1018.56 1018.46 1018.40 1018.40 1018.46 1018.54 1018.63 1018.71 1018.75 1018.76 1018.72 1018.64 1018.54 1018.42 1018.31 1018.20 1018.10 1018.03 1017.97 1017.95 1017.96 1018.01 1018.09 1018.20 1018.35
1015.44 1016.11 1016.81 1017.51 1018.15 1018.66 1019.00 1019.14 1019.10 1018.90 1018.62 1018.34 1018.12 1018.00 1018.02 1018.15 1018.38 1018.64 1018.87 1019.05 1019.14 1019.15 1019.09 1018.99 1018.88 1018.81 1018.79 1018.82 1018.89 1018.97 1019.05 1019.09 1019.09 1019.04 1018.95 1018.84 1018.72 1018.60 1018.51 1018.44 1018.39 1018.36 1018.33 1018.30 1018.27 1018.24 1018.21 1018.21 1018.24
1015.57 1016.25 1016.98 1017.72 1018.39 1018.91 1019.24 1019.34 1019.24 1018.97 1018.61 1018.25 1017.95 1017.79 1017.78 1017.91 1018.15 1018.44 1018.73 1018.96 1019.11 1019.17 1019.17 1019.12 1019.07 1019.05 1019.08 1019.14 1019.24 1019.34 1019.42 1019.45 1019.42 1019.34 1019.22 1019.08 1018.95 1018.85 1018.78 1018.76 1018.76 1018.76 1018.76 1018.72 1018.66 1018.57 1018.46 1018.35 1018.28
1015.73 1016.43 1017.20 1017.97 1018.65 1019.17 1019.48 1019.54 1019.37 1019.02 1018.58 1018.13 1017.77 1017.54 1017.49 1017.60 1017.84 1018.15 1018.46 1018.73 1018.92 1019.03 1019.08 1019.08 1019.09 1019.13 1019.20 1019.32 1019.46 1019.59 1019.69 1019.73 1019.71 1019.62 1019.49 1019.34 1019.22 1019.13 1019.10 1019.11 1019.15 1019.19 1019.21 1019.18 1019.10 1018.96 1018.79 1018.61 1018.46
1015.88 1016.62 1017.41 1018.19 1018.88 1019.38 1019.65 1019.66 1019.43 1019.01 1018.49 1017.98 1017.55 1017.28 1017.19 1017.28 1017.51 1017.81 1018.14 1018.42 1018.64 1018.78 1018.86 1018.91 1018.96 1019.04 1019.17 1019.34 1019.53 1019.70 1019.84 1019.91 1019.90 1019.83 1019.72 1019.59 1019.48 1019.41 1019.40 1019.43 1019.50 1019.57 1019.60 1019.58 1019.50 1019.34 1019.14 1018.92 1018.73
1016.02 1016.76 1017.56 1018.33 1018.99 1019.46 1019.69 1019.64 1019.36 1018.88 1018.32 1017.77 1017.31 1017.02 1016.91 1016.98 1017.20 1017.51 1017.83 1018.12 1018.34 1018.49 1018.59 1018.65 1018.73 1018.84 1019.01 1019.22 1019.45 1019.67 1019.85 1019.97 1020.00 1019.96 1019.87 1019.76 1019.67 1019.61 1019.61 1019.66 1019.74 1019.82 1019.87 1019.86 1019.78 1019.63 1019.43 1019.20 1018.99
1016.10 1016.83 1017.60 1018.33 1018.94 1019.35 1019.52 1019.43 1019.11 1018.61 1018.04 1017.49 1017.04 1016.75 1016.66 1016.74 1016.96 1017.26 1017.58 1017.86 1018.07 1018.22 1018.31 1018.38 1018.47 1018.59 1018.77 1019.01 1019.27 1019.53 1019.75 1019.91 1019.98 1019.98 1019.92 1019.83 1019.75 1019.70 1019.70 1019.75 1019.82 1019.90 1019.95 1019.95 1019.89 1019.76 1019.58 1019.38 1019.19
1016.10 1016.79 1017.49 1018.15 1018.68 1019.02 1019.12 1018.99 1018.66 1018.17 1017.63 1017.12 1016.71 1016.47 1016.41 1016.52 1016.76 1017.07 1017.38 1017.66 1017.87 1018.00 1018.08 1018.14 1018.22 1018.34 1018.52 1018.76 1019.04 1019.32 1019.57 1019.75 1019.86 1019.89 1019.86 1019.79 1019.72 1019.67 1019.65 1019.68 1019.74 1019.80 1019.85 1019.86 1019.82 1019.73 1019.59 1019.43 1019.27
1016.02 1016.63 1017.24 1017.79 1018.22 1018.47 1018.51 1018.35 1018.01 1017.56 1017.07 1016.63 1016.30 1016.13 1016.13 1016.28 1016.55 1016.88 1017.20 1017.47 1017.67 1017.80 1017.87 1017.92 1017.98 1018.09 1018.27 1018.50 1018.77 1019.06 1019.32 1019.53 1019.66 1019.71 1019.70 1019.65 1019.58 1019.52 1019.49 1019.50 1019.54 1019.59 1019.63 1019.65 1019.63 1019.57 1019.48 1019.37 1019.26
1015.88 1016.40 1016.89 1017.31 1017.62 1017.77 1017.75 1017.55 1017.22 1016.81 1016.39 1016.02 1015.78 1015.68 1015.74 1015.94 1016.24 1016.58 1016.91 1017.19 1017.39 1017.53 1017.60 1017.65 1017.72 1017.82 1017.99 1018.22 1018.49 1018.77 1019.03 1019.25 1019.39 1019.46 1019.46 1019.42 1019.36 1019.30 1019.26 1019.26 1019.28 1019.33 1019.37 1019.41 1019.41 1019.39 1019.35 1019.29 1019.23
Thickness
5822 5826 5827 5821 5809 5790 5771 5772 5778 5774 5771 5776 5778 5775 5767 5761 5756 5744 5759 5767 5768 5769 5768 5766 5764 5765 5765 5765 5765 5765 5766 5766 5767 5768 5768 5768 5767 5766 5766 5765 5765 5764 5763 5763 5762 5761 5761 5760 5760
5832 5831 5826 5821 5802 5775 5765 5775 5773 5772 5775 5779 5778 5774 5767 5760 5764 5761 5763 5765 5768 5768 5768 5765 5763 5764 5764 5764 5763 5763 5763 5764 5765 5765 5766 5765 5764 5764 5764 5763 5763 5762 5762 5761 5760 5759 5759 5758 5758
5835 5834 5826 5815 5792 5776 5767 5775 5774 5777 5781 5778 5772 5772 5765 5756 5761 5762 5764 5767 5768 5768 5767 5763 5762 5762 5762 5762 5762 5762 5762 5762 5762 5763 5763 5763 5762 5762 5762 5761 5760 5760 5759 5759 5758 5758 5757 5756 5756
5837 5833 5827 5807 5782 5783 5781 5781 5782 5778 5777 5779 5774 5765 5763 5764 5766 5766 5766 5768 5768 5768 5767 5762 5760 5760 5761 5760 5760 5760 5760 5760 5760 5760 5761 5761 5760 5760 5760 5759 5759 5758 5757 5757 5756 5756 5755 5755 5754
5842 5832 5813 5794 5785 5787 5791 5788 5787 5778 5774 5776 5774 5760 5755 5764 5769 5768 5767 5769 5769 5769 5767 5763 5759 5759 5759 5759 5759 5759 5758 5758 5758 5758 5759 5759 5759 5758 5758 5758 5758 5757 5756 5756 5755 5755 5754 5754 5753
5837 5832 5806 5787 5782 5788 5791 5792 5787 5779 5775 5775 5772 5761 5754 5765 5766 5767 5769 5768 5770 5769 5767 5763 5759 5758 5758 5757 5757 5757 5757 5757 5757 5757 5757 5757 5757 5757 5757 5757 5757 5757 5756 5755 5755 5754 5754 5753 5753
5833 5824 5804 5795 5787 5785 5789 5795 5788 5780 5775 5775 5777 5763 5757 5762 5767 5769 5768 5768 5769 5769 5768 5765 5763 5760 5758 5757 5756 5756 5756 5756 5755 5755 5755 5756 5756 5756 5756 5756 5756 5756 5755 5755 5755 5754 5753 5753 5752
5845 5831 5809 5802 5792 5786 5794 5795 5792 5786 5777 5783 5782 5766 5757 5763 5770 5770 5768 5768 5768 5768 5767 5766 5764 5763 5762 5760 5757 5756 5756 5755 5755 5755 5755 5755 5756 5756 5756 5756 5755 5755 5755 5754 5754 5754 5753 5753 5753
5849 5827 5806 5805 5799 5794 5800 5794 5793 5796 5786 5782 5782 5777 5773 5772 5772 5769 5766 5766 5765 5765 5766 5767 5766 5765 5764 5763 5759 5758 5757 5756 5756 5756 5756 5757 5759 5760 5758 5757 5755 5755 5755 5754 5754 5754 5754 5754 5753
5842 5819 5810 5817 5817 5807 5803 5798 5795 5791 5781 5776 5774 5775 5775 5773 5770 5767 5764 5764 5763 5763 5766 5768 5767 5766 5766 5764 5761 5762 5761 5758 5758 5758 5758 5759 5758 5759 5759 5756 5755 5755 5755 5755 5755 5755 5755 5756 5758
5839 5822 5822 5823 5824 5818 5807 5802 5804 5793 5780 5779 5774 5772 5772 5771 5769 5768 5767 5767 5765 5766 5767 5768 5767 5766 5767 5766 5764 5763 5762 5760 5760 5758 5758 5759 5760 5761 5760 5760 5758 5757 5757 5758 5757 5758 5759 5760 5759
5834 5830 5830 5826 5826 5820 5811 5807 5801 5797 5791 5793 5787 5781 5775 5772 5771 5771 5768 5768 5768 5768 5768 5769 5768 5766 5765 5766 5765 5764 5764 5762 5762 5760 5760 5760 5761 5760 5760 5759 5759 5759 5759 5758 5759 5758 5759 5758 5758
5832 5829 5832 5830 5827 5823 5817 5808 5802 5797 5799 5797 5791 5784 5779 5776 5775 5775 5775 5773 5771 5769 5769 5769 5769 5767 5766 5764 5764 5765 5764 5764 5763 5760 5760 5760 5761 5761 5760 5758 5758 5759 5759 5759 5758 5758 5757 5757 5757
5837 5834 5832 5831 5826 5822 5813 5808 5804 5798 5802 5795 5789 5784 5783 5780 5778 5777 5776 5774 5773 5772 5772 5771 5770 5768 5766 5765 5765 5765 5765 5763 5764 5762 5760 5759 5760 5759 5759 5759 5758 5758 5758 5758 5758 5758 5757 5757 5756
5844 5832 5828 5828 5826 5823 5818 5802 5804 5806 5804 5795 5791 5788 5786 5784 5783 5780 5779 5777 5777 5776 5775 5773 5772 5770 5768 5767 5766 5767 5767 5766 5764 5762 5760 5759 5759 5758 5758 5759 5759 5758 5757 5756 5756 5756 5756 5756 5755
5840 5829 5818 5823 5827 5825 5817 5798 5808 5812 5805 5796 5794 5792 5788 5787 5787 5786 5784 5782 5781 5779 5776 5775 5776 5772 5769 5767 5766 5768 5767 5766 5764 5763 5761 5759 5758 5758 5758 5758 5759 5757 5757 5757 5756 5756 5755 5754 5754
5830 5822 5819 5820 5830 5827 5820 5808 5812 5816 5809 5800 5798 5796 5793 5791 5790 5790 5790 5788 5786 5783 5779 5777 5776 5774 5772 5770 5768 5768 5766 5765 5764 5764 5762 5760 5759 5758 5759 5758 5757 5756 5757 5756 5757 5755 5754 5752 5751
5823 5824 5822 5820 5828 5826 5820 5817 5817 5817 5813 5807 5804 5801 5798 5796 5795 5796 5795 5793 5790 5787 5783 5780 5778 5775 5774 5772 5770 5769 5767 5767 5766 5764 5761 5760 5759 5758 5758 5758 5755 5756 5756 5754 5753 5751 5751 5751 5750
5836 5829 5823 5825 5834 5827 5821 5820 5820 5820 5816 5812 5810 5807 5804 5802 5804 5803 5800 5797 5793 5789 5785 5782 5779 5777 5775 5773 5772 5769 5768 5768 5767 5765 5762 5761 5759 5758 5757 5758 5756 5755 5755 5753 5753 5751 5750 5749 5750
5832 5825 5824 5826 5832 5827 5822 5822 5827 5825 5821 5821 5817 5814 5812 5809 5807 5804 5802 5800 5796 5792 5788 5785 5782 5781 5779 5776 5774 5771 5770 5770 5769 5766 5762 5761 5759 5758 5759 5756 5757 5755 5753 5751 5750 5749 5749 5749 5749
5827 5827 5825 5822 5826 5830 5824 5818 5822 5827 5829 5828 5826 5824 5822 5817 5812 5808 5805 5803 5801 5797 5793 5791 5787 5784 5781 5779 5777 5774 5770 5769 5768 5765 5763 5761 5760 5758 5757 5756 5756 5754 5754 5752 5749 5748 5746 5745 5746
5819 5835 5832 5825 5818 5818 5820 5807 5821 5828 5826 5826 5828 5828 5827 5825 5821 5817 5812 5808 5805 5803 5800 5795 5791 5787 5784 5781 5779 5775 5771 5769 5767 5766 5764 5762 5759 5758 5757 5756 5755 5753 5754 5751 5750 5749 5747 5744 5743
5829 5837 5832 5827 5822 5819 5821 5814 5823 5831 5824 5829 5833 5834 5835 5833 5829 5824 5820 5815 5812 5810 5805 5800 5794 5789 5786 5783 5780 5776 5774 5772 5771 5768 5764 5762 5761 5759 5758 5756 5754 5753 5753 5750 5748 5747 5746 5746 5743
5832 5828 5824 5825 5824 5803 5815 5812 5815 5831 5831 5837 5840 5841 5840 5839 5835 5831 5827 5822 5817 5814 5810 5804 5797 5791 5788 5785 5782 5778 5775 5772 5770 5767 5765 5764 5763 5761 5759 5757 5754 5753 5752 5749 5747 5746 5745 5744 5742
5824 5812 5798 5794 5798 5802 5821 5813 5819 5841 5847 5846 5845 5846 5846 5844 5840 5834 5829 5824 5819 5816 5812 5808 5801 5794 5791 5788 5784 5781 5777 5774 5770 5768 5766 5765 5764 5762 5758 5758 5754 5753 5751 5749 5747 5745 5743 5742 5740
5819 5819 5798 5787 5793 5807 5812 5810 5830 5849 5852 5853 5853 5852 5850 5847 5844 5839 5834 5829 5824 5820 5815 5810 5804 5798 5794 5791 5787 5784 5780 5778 5776 5771 5770 5767 5765 5763 5760 5757 5755 5753 5751 5749 5747 5746 5744 5741 5739
5814 5818 5830 5815 5808 5802 5810 5819 5834 5847 5846 5848 5849 5850 5848 5848 5846 5842 5839 5834 5829 5824 5819 5815 5808 5801 5797 5794 5789 5785 5782 5778 5776 5772 5770 5769 5765 5764 5760 5757 5755 5752 5750 5748 5746 5745 5742 5740 5739
5828 5827 5817 5807 5788 5787 5800 5809 5819 5829 5836 5844 5845 5847 5848 5849 5847 5844 5840 5836 5833 5828 5823 5818 5812 5805 5800 5796 5792 5789 5784 5779 5776 5773 5769 5767 5764 5762 5759 5757 5754 5752 5749 5747 5745 5744 5741 5739 5737
5810 5813 5814 5813 5809 5796 5791 5808 5840 5836 5841 5843 5846 5849 5849 5848 5848 5845 5841 5838 5834 5829 5824 5818 5813 5807 5802 5798 5794 5790 5786 5781 5777 5773 5770 5767 5764 5761 5758 5755 5753 5751 5748 5746 5744 5743 5741 5738 5736
5818 5815 5812 5798 5794 5803 5805 5812 5846 5845 5847 5847 5848 5849 5850 5849 5849 5846 5842 5838 5832 5828 5824 5819 5815 5810 5805 5800 5795 5791 5787 5782 5778 5774 5770 5767 5764 5761 5758 5755 5752 5750 5748 5745 5743 5741 5740 5737 5734